Columbia, SC

11:10 PM EDT on September 27, 2016 (GMT -0400)
Columbia Owens Downtown

Weather History for KCUB - February, 2013

Change the Weather History Date:

Thursday, February 14, 2013

  Actual Average Record
Temperature  
Mean Temperature 45 °F 49 °F  
Max Temperature 53 °F 60 °F 72 °F (2000)
Min Temperature 37 °F 38 °F 25 °F (2015)
Degree Days  
Heating Degree Days 20 16  
Month to date heating degree days 209 236  
Since 1 July heating degree days 1399 1728  
Cooling Degree Days 0 0  
Month to date cooling degree days 0 0  
Year to date cooling degree days 24 1  
Moisture  
Dew Point 37 °F    
Average Humidity 74    
Maximum Humidity 92    
Minimum Humidity 50    
Precipitation  
Precipitation 0.00 in 0.13 in 0.81 in (2000)
Month to date precipitation 2.55 1.57  
Year to date precipitation 3.97 5.20  
Sea Level Pressure  
Sea Level Pressure 30.03 in    
Wind  
Wind Speed 1 mph (NW)    
Max Wind Speed 7 mph    
Max Gust Speed 10 mph    
Visibility 9 miles    
Events      
T = Trace of Precipitation, MM = Missing Value Source: NWS Daily Summary

Daily Weather History Graph

Daily Weather History Graph

Search for Another Location

Airport or City:

Trip Planner

Search our weather history database for the weather conditions in past years. The results will help you decide how hot, cold, wet, or windy it might be!

Date:

Astronomy

Feb. 14, 2013 Rise Set
Actual Time 7:09 AM EST 6:07 PM EST
Civil Twilight 6:43 AM EST 6:32 PM EST
Nautical Twilight 6:14 AM EST 7:02 PM EST
Astronomical Twilight 5:45 AM EST 7:31 PM EST
Moon 9:26 AM EST (2/14) 10:51 PM EST (2/14)
Length of Visible Light 11h 49m
Length of Day
10h 57m
Waxing Crescent, 21% of the Moon is Illuminated
Feb 14
Waxing Crescent
Feb 17
First Quarter
Feb 25
Full
Mar 4
Last Quarter
Mar 11
New

Hourly Weather History & Observations

Time (EST) Temp. Dew Point Humidity Pressure Visibility Wind Dir Wind Speed Gust Speed Precip Events Conditions
12:53 AM 48.0 °F 42.1 °F 80% 29.91 in 10.0 mi Calm Calm - N/A   Clear
1:53 AM 48.0 °F 39.9 °F 74% 29.91 in 10.0 mi NW 4.6 mph - N/A   Clear
2:53 AM 46.9 °F 37.0 °F 68% 29.94 in 10.0 mi Calm Calm - N/A   Clear
3:53 AM 45.0 °F 37.0 °F 74% 29.96 in 10.0 mi Calm Calm - N/A   Clear
4:53 AM 41.0 °F 37.9 °F 89% 29.98 in 10.0 mi Calm Calm - N/A   Clear
5:53 AM 39.0 °F 36.0 °F 89% 29.99 in 10.0 mi Calm Calm - N/A   Clear
6:53 AM 37.9 °F 36.0 °F 93% 30.02 in 8.0 mi Calm Calm - N/A   Clear
7:53 AM 37.9 °F 36.0 °F 93% 30.06 in 9.0 mi Calm Calm - N/A   Clear
8:53 AM 43.0 °F 37.9 °F 82% 30.06 in 10.0 mi Calm Calm - N/A   Clear
9:53 AM 46.0 °F 35.1 °F 66% 30.09 in 10.0 mi Calm Calm - N/A   Clear
10:53 AM 48.0 °F 36.0 °F 63% 30.10 in 10.0 mi Calm Calm - N/A   Clear
11:53 AM 51.1 °F 34.0 °F 52% 30.10 in 10.0 mi Variable 3.5 mph - N/A   Clear
12:53 PM 51.1 °F 34.0 °F 52% 30.06 in 10.0 mi Calm Calm - N/A   Clear
1:53 PM 52.0 °F 35.1 °F 53% 30.05 in 10.0 mi Calm Calm - N/A   Clear
2:53 PM 53.1 °F 35.1 °F 50% 30.04 in 10.0 mi Calm Calm - N/A   Clear
3:53 PM 53.1 °F 35.1 °F 50% 30.03 in 10.0 mi NW 3.5 mph - N/A   Clear
4:53 PM 53.1 °F 35.1 °F 50% 30.03 in 10.0 mi Calm Calm - N/A   Clear
5:53 PM 51.1 °F 37.9 °F 61% 30.02 in 10.0 mi Calm Calm - N/A   Clear
6:53 PM 46.9 °F 39.9 °F 77% 30.06 in 10.0 mi Calm Calm - N/A   Clear
7:53 PM 45.0 °F 39.9 °F 82% 30.06 in 10.0 mi Calm Calm - N/A   Clear
8:53 PM 43.0 °F 39.9 °F 89% 30.08 in 9.0 mi Calm Calm - N/A   Clear
9:53 PM 41.0 °F 37.9 °F 89% 30.07 in 8.0 mi Calm Calm - N/A   Clear
10:53 PM 39.9 °F 37.9 °F 93% 30.09 in 6.0 mi Calm Calm - N/A   Clear
11:53 PM 37.9 °F 37.0 °F 97% 30.09 in 5.0 mi Calm Calm - N/A   Clear